Flag for Germany Weather past 2 weeks in Solingen, North Rhine-Westphalia, Germany

Now
37 °F

Partly sunny.


Feels Like: 28 °F
Forecast: 30 / 35 °F
Wind: 16 mph from Southwest

Location: Duesseldorf

Current Time: Jan 29, 2015 at 9:44:03 AM

Latest Report: Jan 29, 2015 at 9:20 AM


Visibility: N/A

Pressure: 29.27 "Hg

Humidity: 75%

Dew point: 30 °F

Location of SolingenLocation

Historic Weather in Solingen — Graph

°F

Solingen temperature yesterday

Maximum temperature yesterday: 45 °F (at 11:50 AM)
Minimum temperature yesterday: 36 °F (at 12:20 AM)
Average temperature yesterday: 40 °F

Past Weeks' High & Low Weather Summary

 TemperatureHumidityPressure
High52 °F (Jan 15, 4:50 PM)100% (Jan 17, 8:20 AM)30.42 "Hg (Jan 17, 8:20 AM)
Low25 °F (Jan 25, 2:20 AM)52% (Jan 21, 1:20 PM)29.27 "Hg (Jan 29, 8:20 AM)
Average37 °F83%29.96 "Hg
* Reported Jan 14 8:20 AM — Jan 29 8:20 AM, Solingen, Weather by CustomWeather, © 2014

Note: Actual official high and low records may vary slightly from our data, if they occured in-between our weather recording intervals... More about our weather records

Advertising

Solingen weather history for previous 24 hours

 ConditionsComfort  
Time TempWeatherWind HumidityBarometerVisibility
8:20 AM
Jan 29
37 °FPartly sunny.18 mph75%29.27 "HgN/A
7:50 AM36 °FPassing clouds.17 mph81%29.30 "HgN/A
7:20 AM36 °FPassing clouds.16 mph81%29.30 "HgN/A
6:50 AM36 °FPassing clouds.18 mph81%29.30 "HgN/A
6:20 AM36 °FPassing clouds.17 mph81%29.33 "HgN/A
5:50 AM36 °FPassing clouds.17 mph81%29.33 "HgN/A
5:20 AM36 °FClear.16 mph75%29.36 "Hg10 mi
4:50 AM36 °FClear.16 mph75%29.39 "Hg10 mi
4:20 AM34 °FClear.16 mph81%29.39 "Hg10 mi
3:50 AM34 °FClear.16 mph81%29.42 "Hg10 mi
3:20 AM36 °FClear.17 mph75%29.42 "Hg10 mi
2:50 AM36 °FClear.15 mph75%29.42 "Hg10 mi
2:20 AM36 °FClear.16 mph81%29.45 "Hg10 mi
1:50 AM36 °FClear.16 mph81%29.45 "Hg10 mi
1:20 AM36 °FPassing clouds.16 mph87%29.45 "HgN/A
12:50 AM36 °FPassing clouds.17 mph81%29.45 "HgN/A
12:20 AM36 °FPassing clouds.18 mph81%29.45 "HgN/A
11:50 PM
Jan 28
37 °FPassing clouds.15 mph81%29.45 "HgN/A
11:20 PM37 °FClear.16 mph81%29.45 "Hg10 mi
10:20 PM37 °FPassing clouds.14 mph81%29.47 "HgN/A
9:50 PM37 °FPassing clouds.16 mph87%29.47 "HgN/A
9:20 PM37 °FPassing clouds.15 mph87%29.47 "HgN/A
8:50 PM37 °FPassing clouds.14 mph87%29.47 "HgN/A
8:20 PM37 °FPassing clouds.13 mph93%29.47 "HgN/A
7:50 PM37 °FPassing clouds.10 mph93%29.47 "HgN/A
7:20 PM37 °FPartly cloudy.10 mph93%29.47 "HgN/A
6:50 PM39 °FLight rain. Mostly cloudy.22 mph81%29.47 "HgN/A
6:20 PM43 °FRain. Overcast.24 mph93%29.42 "Hg4 mi
5:50 PM45 °FLight rain. Overcast.21 mph87%29.39 "HgN/A
5:20 PM43 °FDrizzle. Overcast.23 mph93%29.42 "HgN/A
4:50 PM43 °FDrizzle. Cloudy.25 mph87%29.45 "HgN/A
4:20 PM43 °FLight rain. More clouds than sun.17 mph87%29.47 "HgN/A
3:50 PM43 °FLight rain. More clouds than sun.16 mph87%29.50 "HgN/A
3:20 PM43 °FLight rain. Partly sunny.20 mph81%29.53 "HgN/A
2:50 PM45 °FPartly sunny.22 mph71%29.53 "HgN/A
2:20 PM45 °FPartly sunny.22 mph71%29.59 "HgN/A
1:50 PM45 °FPartly sunny.21 mph71%29.62 "HgN/A
1:20 PM45 °FPartly sunny.22 mph71%29.68 "HgN/A
12:50 PM45 °FBroken clouds.22 mph71%29.68 "HgN/A
12:20 PM45 °FBroken clouds.23 mph71%29.74 "HgN/A
11:50 AM45 °FLight rain. Broken clouds.18 mph76%29.77 "HgN/A
11:20 AM43 °FPartly sunny.15 mph81%29.80 "HgN/A
10:50 AM43 °FBroken clouds.16 mph81%29.83 "HgN/A
10:20 AM43 °FPartly sunny.16 mph81%29.83 "HgN/A
9:50 AM41 °FPartly sunny.14 mph87%29.89 "HgN/A
9:20 AM41 °FPartly sunny.15 mph87%29.89 "HgN/A
Weather by CustomWeather, © 2014

See weather overviewHow to use our weather pages